Flag for Germany Weather past 2 weeks in Buchholz in der Nordheide, Lower Saxony, Germany

Now
68 °F

Clear.


Feels Like: 68 °F
Forecast: 61 / 82 °F
Wind: 7 mph from Southeast

Location: Hamburg-Fuhlsbuettel

Current Time: Aug 2, 2014 at 1:14:55 AM

Latest Report: Aug 2, 2014 at 12:50 AM


Visibility: 10 mi

Pressure: 29.86 "Hg

Humidity: 64%

Dew point: 55 °F

Location of Buchholz in der NordheideLocation

Historic Weather in Buchholz in der Nordheide — Graph

°F

Buchholz in der Nordheide temperature yesterday

Maximum temperature yesterday: 82 °F (at 3:20 PM)
Minimum temperature yesterday: 61 °F (at 4:20 AM)
Average temperature yesterday: 73 °F

Past Weeks' High & Low Weather Summary

 TemperatureHumidityPressure
High88 °F (Jul 19, 2:20 PM)100% (Jul 22, 2:20 AM)30.18 "Hg (Jul 22, 2:20 AM)
Low59 °F (Jul 28, 5:20 AM)29% (Jul 19, 6:20 PM)29.74 "Hg (Jul 30, 2:20 AM)
Average72 °F69%29.95 "Hg
* Reported Jul 18 12:20 AM — Aug 2 12:20 AM, Buchholz in der Nordheide, Weather by CustomWeather, © 2014

Note: Actual official high and low records may vary slightly from our data, if they occured in-between our weather recording intervals... More about our weather records

Advertising

Buchholz in der Nordheide weather history for previous 24 hours

 ConditionsComfort  
Time TempWeatherWind HumidityBarometerVisibility
12:20 AM
Aug 2
70 °FMild.8 mph60%29.86 "HgN/A
11:50 PM
Aug 1
70 °FClear.8 mph60%29.86 "Hg10 mi
11:20 PM72 °FClear.8 mph57%29.86 "Hg10 mi
10:50 PM72 °FClear.10 mph57%29.86 "Hg10 mi
10:20 PM73 °FClear.8 mph53%29.86 "Hg10 mi
9:50 PM75 °FSunny.8 mph50%29.86 "Hg10 mi
9:20 PM75 °FSunny.12 mph50%29.86 "Hg10 mi
8:50 PM77 °FSunny.10 mph44%29.83 "Hg10 mi
8:20 PM79 °FSunny.14 mph42%29.83 "Hg10 mi
7:50 PM79 °FPassing clouds.13 mph42%29.83 "HgN/A
7:20 PM81 °FSunny.14 mph39%29.83 "Hg10 mi
6:50 PM81 °FPassing clouds.14 mph37%29.83 "HgN/A
6:20 PM81 °FPassing clouds.14 mph37%29.83 "HgN/A
5:50 PM82 °FPassing clouds.16 mph35%29.83 "HgN/A
5:20 PM82 °FPassing clouds.14 mph32%29.83 "HgN/A
4:50 PM82 °FPassing clouds.12 mph32%29.86 "HgN/A
4:20 PM82 °FPassing clouds.14 mph32%29.86 "HgN/A
3:50 PM82 °FPassing clouds.14 mph32%29.86 "HgN/A
3:20 PM82 °FSunny.16 mph35%29.86 "Hg10 mi
2:50 PM81 °FPassing clouds.10 mph39%29.86 "HgN/A
2:20 PM79 °FSunny.13 mph39%29.86 "Hg10 mi
1:50 PM81 °FPassing clouds.10 mph39%29.86 "HgN/A
1:20 PM81 °FPassing clouds.8 mph39%29.89 "HgN/A
12:50 PM81 °FPassing clouds.10 mph39%29.89 "HgN/A
12:20 PM79 °FPassing clouds.10 mph45%29.89 "HgN/A
11:50 AM79 °FPassing clouds.12 mph45%29.89 "HgN/A
11:20 AM77 °FPassing clouds.10 mph44%29.89 "HgN/A
10:50 AM77 °FSunny.12 mph47%29.89 "Hg10 mi
10:20 AM75 °FPassing clouds.12 mph47%29.92 "HgN/A
9:50 AM73 °FPassing clouds.10 mph50%29.92 "HgN/A
9:20 AM72 °FSunny.10 mph57%29.92 "Hg10 mi
8:50 AM70 °FSunny.8 mph60%29.92 "Hg10 mi
8:20 AM68 °FSunny.8 mph64%29.92 "Hg10 mi
7:50 AM66 °FSunny.6 mph73%29.92 "Hg10 mi
7:20 AM64 °FPassing clouds.7 mph78%29.92 "HgN/A
6:50 AM63 °FSunny.7 mph77%29.92 "Hg10 mi
6:20 AM61 °FPassing clouds.8 mph83%29.92 "HgN/A
5:50 AM61 °FClear.7 mph83%29.92 "Hg10 mi
5:20 AM61 °FClear.7 mph83%29.92 "Hg10 mi
4:50 AM61 °FClear.7 mph83%29.92 "Hg10 mi
4:20 AM61 °FClear.7 mph83%29.92 "Hg10 mi
3:50 AM63 °FClear.7 mph83%29.92 "Hg10 mi
3:20 AM63 °FClear.6 mph83%29.92 "Hg10 mi
2:50 AM63 °FClear.8 mph83%29.92 "Hg10 mi
2:20 AM64 °FClear.7 mph78%29.92 "Hg10 mi
1:50 AM64 °FClear.6 mph78%29.92 "Hg10 mi
1:20 AM66 °FClear.6 mph73%29.92 "Hg10 mi
Weather by CustomWeather, © 2014

See weather overviewHow to use our weather pages